Torna al catalogo

CZ-6A DEB

AttivoPO
NORAD 61356·DEBRIS·🇨🇳 China

Lanciato Aug 6, 2024 da Taiyuan Satellite Launch Center

Loading…

Prossimi Passaggi (prossime 24 ore)

TLE

AggiornatoSource: Space-Track

Epoca: Sep 14, 2026, 06:28 UTC

1 61356U 24140VV  26257.26973768  .00001187  00000-0  47562-3 0  9996
2 61356  88.9663 260.9670 0034088 279.5036  80.2306 14.27417529105678

Traccia CZ-6A DEB in tempo reale con AllMySat

Download on the App Store